Wind from 197

Air temperature 5.0° C
Dewpoint 5.0° C

Last reported at 2014-Apr-19 21:44 UTC.
Time now 2014-Apr-19 22:20 UTC

Location: N 60°16' E 023°41'.
View on Google Maps.

See reports from other nearby stations

Tides Stations Pressure Air Temp Water Temp Dewpoint Dewpoint depression Visibility Wind Speed Wind Dir Waves Ship positions

  
sailing weather and tide predictions

DW3039 Karjalohja FI weather

date/time (UTC)wind fromknots sea level pressurealtimeterstation pressurevisibilityair tempwater tempwave heightnotes
2014-Apr-19 21:44 197 5.0
2014-Apr-19 21:34 197 5.0
2014-Apr-19 21:24 197 5.6
2014-Apr-19 21:14 197 5.6
2014-Apr-19 21:04 197 5.6
2014-Apr-19 20:54 197 6.1
2014-Apr-19 20:43 197 6.1
2014-Apr-19 20:33 197 6.1
2014-Apr-19 20:23 197 6.7
2014-Apr-19 20:03 197 7.2
2014-Apr-19 19:53 197 7.2
2014-Apr-19 19:43 197 7.8
2014-Apr-19 19:33 197 7.8
2014-Apr-19 19:23 197 8.3
2014-Apr-19 19:13 197 8.3
2014-Apr-19 19:03 197 8.9
2014-Apr-19 18:53 197 8.9
2014-Apr-19 18:43 197 9.4
2014-Apr-19 18:33 197 10.0
2014-Apr-19 18:23 197 10.6
2014-Apr-19 18:13 197 10.6
2014-Apr-19 18:02 197 11.1
2014-Apr-19 17:52 197 11.7
2014-Apr-19 17:42 197 11.7
2014-Apr-19 17:32 197 12.2
2014-Apr-19 17:22 227 12.2
2014-Apr-19 17:12 245 12.8
2014-Apr-19 17:02 217 12.8
2014-Apr-19 16:52 256 13.3
2014-Apr-19 16:42 235 1 gusting 5 13.3
2014-Apr-19 16:32 261 0 gusting 6 13.3
2014-Apr-19 16:22 244 3 gusting 6 13.3
2014-Apr-19 16:12 251 13.3
2014-Apr-19 16:02 221 3 gusting 7 13.3
2014-Apr-19 15:52 262 1 gusting 7 13.9
2014-Apr-19 15:41 236 0 gusting 8 13.9
2014-Apr-19 15:31 229 4 gusting 7 13.9
2014-Apr-19 15:21 234 13.9
2014-Apr-19 15:11 252 3 gusting 8 13.9
2014-Apr-19 15:01 253 3 gusting 6 13.9
2014-Apr-19 14:51 273 4 gusting 7 13.9
2014-Apr-19 14:41 292 0 gusting 5 13.9
2014-Apr-19 14:31 221 6 gusting 8 13.9
2014-Apr-19 14:21 234 0 gusting 9 13.9
2014-Apr-19 14:10 216 5 gusting 12 13.9
2014-Apr-19 14:00 246 4 gusting 7 13.9
2014-Apr-19 13:50 220 7 gusting 12 13.9
2014-Apr-19 13:40 202 6 gusting 8 13.9
2014-Apr-19 13:30 248 13.9
2014-Apr-19 13:20 237 0 gusting 8 13.9
2014-Apr-19 13:10 234 5 gusting 9 13.9
2014-Apr-19 13:00 244 2 gusting 6 13.9
2014-Apr-19 12:50 228 5 gusting 9 13.3
2014-Apr-19 12:40 258 4 gusting 7 13.3
2014-Apr-19 12:30 208 2 gusting 9 13.3
2014-Apr-19 12:20 260 3 gusting 7 12.8
2014-Apr-19 12:10 267 3 gusting 7 12.2
2014-Apr-19 12:00 261 3 gusting 13 12.2
2014-Apr-19 11:50 238 2 gusting 12 11.7
2014-Apr-19 11:40 231 7 gusting 12 11.7
2014-Apr-19 11:30 229 5 gusting 10 11.7
2014-Apr-19 11:20 259 2 gusting 8 11.7
2014-Apr-19 11:10 258 0 gusting 7 11.7
2014-Apr-19 11:00 221 5 gusting 10 11.7
2014-Apr-19 10:50 184 0 gusting 8 11.7
2014-Apr-19 10:40 215 4 gusting 10 11.1
2014-Apr-19 10:29 212 5 gusting 7 10.6
2014-Apr-19 10:19 247 0 gusting 5 10.6
2014-Apr-19 10:09 217 2 gusting 9 10.6
2014-Apr-19 09:59 276 3 gusting 6 10.6
2014-Apr-19 09:49 248 10.6
2014-Apr-19 09:39 219 4 gusting 8 10.0
2014-Apr-19 09:29 222 2 gusting 10 10.0
2014-Apr-19 09:19 213 6 gusting 11 9.4
2014-Apr-19 09:09 255 5 gusting 10 8.9
2014-Apr-19 08:59 262 5 gusting 8 8.9
2014-Apr-19 08:49 229 5 gusting 11 8.9
2014-Apr-19 08:39 261 1 gusting 9 8.3
2014-Apr-19 08:29 243 3 gusting 8 8.3
2014-Apr-19 08:19 224 3 gusting 9 8.3
2014-Apr-19 08:09 232 3 gusting 9 8.3
2014-Apr-19 07:59 241 0 gusting 6 7.8
2014-Apr-19 07:49 223 1 gusting 6 7.8
2014-Apr-19 07:39 213 0 gusting 6 7.2
2014-Apr-19 07:29 214 6.7
2014-Apr-19 07:19 190 6.7
2014-Apr-19 07:09 204 0 gusting 5 6.1
2014-Apr-19 06:59 210 0 gusting 4 5.6
2014-Apr-19 06:49 206 5.6
2014-Apr-19 06:39 219 4 gusting 5 5.0
2014-Apr-19 06:29 285 5.0
2014-Apr-19 06:19 258 1 gusting 6 4.4
2014-Apr-19 06:09 259 3.9
2014-Apr-19 05:59 260 0 gusting 2 3.3
2014-Apr-19 05:49 258 2.8
2014-Apr-19 05:39 258 2.8
2014-Apr-19 05:29 258 2.8
2014-Apr-19 05:19 258 2.2
2014-Apr-19 05:09 258 2.2
2014-Apr-19 04:59 258 2.2
2014-Apr-19 04:49 258 1.7
2014-Apr-19 04:39 258 1.7
2014-Apr-19 04:29 258 1.1
2014-Apr-19 04:19 258 1.1
2014-Apr-19 04:09 258 1.1
2014-Apr-19 03:58 258 0.6
2014-Apr-19 03:48 258 0.6
2014-Apr-19 03:38 258 0.6
2014-Apr-19 03:28 258 0.6
2014-Apr-19 03:18 258 0.6
2014-Apr-19 03:08 258 0.6
2014-Apr-19 02:58 258 0.6
2014-Apr-19 02:48 258 0.6
2014-Apr-19 02:38 258 0.6
2014-Apr-19 02:28 258 0.6
2014-Apr-19 02:18 258 1.1
2014-Apr-19 02:08 258 1.1
2014-Apr-19 01:58 258 1.1
2014-Apr-19 01:48 258 1.1
2014-Apr-19 01:38 258 1.1
2014-Apr-19 01:28 258 1.1
2014-Apr-19 01:18 258 1.1
2014-Apr-19 01:08 258 1.1
2014-Apr-19 00:58 258 1.1
2014-Apr-19 00:48 258 1.7
2014-Apr-19 00:38 258 1.7
2014-Apr-19 00:27 258 1.7
2014-Apr-19 00:17 258 1.7
2014-Apr-19 00:07 258 1.7
2014-Apr-18 23:57 258 1.7
2014-Apr-18 23:47 258 1.7
2014-Apr-18 23:37 258 2.2
2014-Apr-18 23:27 258 2.2
2014-Apr-18 23:17 258 2.2
2014-Apr-18 23:07 258 2.2
2014-Apr-18 22:57 258 2.2
2014-Apr-18 22:47 258 2.2
2014-Apr-18 22:37 258 2.8
2014-Apr-18 22:27 258 2.8
2014-Apr-18 22:17 258 2.8
2014-Apr-18 22:07 258 2.8
2014-Apr-18 21:57 258 2.8
2014-Apr-18 21:47 258 3.3
2014-Apr-18 21:37 258 3.3
2014-Apr-18 21:27 258 3.3
2014-Apr-18 21:17 258 3.3
2014-Apr-18 21:07 258 3.3
2014-Apr-18 20:57 258 3.9
2014-Apr-18 20:47 258 3.9
2014-Apr-18 20:37 258 3.9
2014-Apr-18 20:27 258 4.4
2014-Apr-18 20:17 258 4.4
2014-Apr-18 20:07 258 4.4
2014-Apr-18 19:57 258 5.0
2014-Apr-18 19:47 258 5.0
2014-Apr-18 19:36 258 5.0
2014-Apr-18 19:26 258 5.6
2014-Apr-18 19:16 258 5.6
2014-Apr-18 19:06 258 6.1
2014-Apr-18 18:56 258 6.1
2014-Apr-18 18:46 258 6.7
2014-Apr-18 18:36 258 6.7
2014-Apr-18 18:26 258 7.2
2014-Apr-18 18:16 258 7.2
2014-Apr-18 18:06 258 7.8
2014-Apr-18 17:56 258 7.8
2014-Apr-18 17:46 258 7.8
2014-Apr-18 17:36 258 8.3
2014-Apr-18 17:26 258 8.3
2014-Apr-18 17:16 258 8.3
2014-Apr-18 17:06 258 8.3
2014-Apr-18 16:56 235 0 gusting 7 8.3
2014-Apr-18 16:46 241 1 gusting 8 8.3
2014-Apr-18 16:35 208 5 gusting 6 8.3
2014-Apr-18 16:25 213 3 gusting 7 8.3
2014-Apr-18 16:15 212 1 gusting 8 8.9
2014-Apr-18 16:05 195 4 gusting 8 8.9
2014-Apr-18 15:55 202 5 gusting 8 8.9
2014-Apr-18 15:45 204 4 gusting 9 8.9
2014-Apr-18 15:35 219 6 gusting 8 8.9
2014-Apr-18 15:25 181 1 gusting 9 8.9
2014-Apr-18 15:15 219 5 gusting 8 8.9
2014-Apr-18 15:05 184 8.9
2014-Apr-18 14:55 223 0 gusting 6 8.9
2014-Apr-18 14:45 218 3 gusting 8 8.9
2014-Apr-18 14:35 116 0 gusting 7 8.9
2014-Apr-18 14:25 184 1 gusting 7 8.9
2014-Apr-18 14:15 134 1 gusting 7 8.9
2014-Apr-18 14:05 131 8.9
2014-Apr-18 13:55 109 8.9
2014-Apr-18 13:44 199 0 gusting 10 8.9
2014-Apr-18 13:34 194 4 gusting 9 8.9
2014-Apr-18 13:24 204 5 gusting 8 9.4
2014-Apr-18 13:14 186 4 gusting 11 9.4
2014-Apr-18 13:04 185 2 gusting 9 8.9
2014-Apr-18 12:54 200 3 gusting 10 8.9
2014-Apr-18 12:44 156 3 gusting 9 8.9
2014-Apr-18 12:34 161 1 gusting 8 8.9
2014-Apr-18 12:24 188 3 gusting 8 8.9
2014-Apr-18 12:14 143 1 gusting 8 8.9
2014-Apr-18 12:04 196 6 gusting 9 8.9
2014-Apr-18 11:54 181 4 gusting 10 8.9
2014-Apr-18 11:44 194 6 gusting 11 8.9
2014-Apr-18 11:34 201 3 gusting 13 8.9
2014-Apr-18 11:23 110 8.9
2014-Apr-18 11:13 218 7 gusting 13 8.9
2014-Apr-18 11:03 187 6 gusting 14 8.9
2014-Apr-18 10:53 179 3 gusting 10 8.9
2014-Apr-18 10:43 204 4 gusting 9 8.9
2014-Apr-18 10:33 221 4 gusting 9 8.9
2014-Apr-18 10:23 208 0 gusting 8 8.9
2014-Apr-18 10:13 183 8.9
2014-Apr-18 10:03 209 6 gusting 10 8.3
2014-Apr-18 09:53 200 3 gusting 10 8.3
2014-Apr-18 09:43 212 6 gusting 13 8.3
2014-Apr-18 09:33 224 7 gusting 12 7.8
2014-Apr-18 09:23 216 7 gusting 13 7.8
2014-Apr-18 09:13 202 5 gusting 10 8.9
2014-Apr-18 09:03 199 5 gusting 12 10.0
2014-Apr-18 08:53 167 6 gusting 11 10.0
2014-Apr-18 08:43 200 4 gusting 9 9.4
2014-Apr-18 08:33 193 5 gusting 12 9.4
2014-Apr-18 08:23 191 2 gusting 7 9.4
2014-Apr-18 08:13 199 5 gusting 9 8.9
2014-Apr-18 08:03 210 5 gusting 8 8.9
2014-Apr-18 07:53 206 3 gusting 11 8.9
2014-Apr-18 07:43 203 6 gusting 12 8.3
2014-Apr-18 07:33 192 2 gusting 11 8.3
2014-Apr-18 07:23 201 4 gusting 8 8.3
2014-Apr-18 07:13 202 3 gusting 9 7.8
2014-Apr-18 07:03 205 4 gusting 9 7.8
2014-Apr-18 06:53 198 3 gusting 9 7.8
2014-Apr-18 06:43 184 3 gusting 14 7.8
2014-Apr-18 06:33 193 6 gusting 13 7.8
2014-Apr-18 06:23 214 6 gusting 12 7.2
2014-Apr-18 06:13 184 4 gusting 11 7.2
2014-Apr-18 06:03 213 6 gusting 12 7.2
2014-Apr-18 05:53 203 6 gusting 13 6.7
2014-Apr-18 05:43 164 0 gusting 11 6.7
2014-Apr-18 05:33 188 3 gusting 9 6.7
2014-Apr-18 05:22 187 2 gusting 7 6.7
2014-Apr-18 05:12 180 1 gusting 10 6.7
2014-Apr-18 05:02 211 4 gusting 10 6.7
2014-Apr-18 04:52 177 3 gusting 8 6.1
2014-Apr-18 04:42 181 2 gusting 8 6.1
2014-Apr-18 04:32 200 3 gusting 7 5.6
2014-Apr-18 04:22 206 2 gusting 7 5.6
2014-Apr-18 04:12 213 1 gusting 6 5.6
2014-Apr-18 04:02 193 2 gusting 6 5.6
2014-Apr-18 03:52 194 1 gusting 9 5.6
2014-Apr-18 03:42 207 3 gusting 9 5.6
2014-Apr-18 03:32 202 4 gusting 10 5.6
2014-Apr-18 03:22 205 2 gusting 8 5.0
2014-Apr-18 03:12 201 2 gusting 9 5.6
2014-Apr-18 03:02 202 3 gusting 8 5.6
2014-Apr-18 02:52 185 1 gusting 9 5.6
2014-Apr-18 02:42 194 3 gusting 8 5.6
2014-Apr-18 02:32 194 4 gusting 9 5.6
2014-Apr-18 02:22 169 1 gusting 8 5.6
2014-Apr-18 02:12 174 1 gusting 8 5.6
2014-Apr-18 02:02 190 1 gusting 7 5.6
2014-Apr-18 01:52 164 0 gusting 7 5.6
2014-Apr-18 01:42 207 3 gusting 11 5.6
2014-Apr-18 01:32 201 4 gusting 12 5.0
2014-Apr-18 01:22 207 3 gusting 10 5.0
2014-Apr-18 01:12 200 1 gusting 14 5.6
2014-Apr-18 01:02 188 3 gusting 13 5.6
2014-Apr-18 00:52 200 6 gusting 12 5.6
2014-Apr-18 00:42 179 1 gusting 13 5.6
2014-Apr-18 00:32 194 6 gusting 13 5.6
2014-Apr-18 00:22 201 6 gusting 13 5.6
2014-Apr-18 00:12 209 5 gusting 11 5.0
2014-Apr-18 00:02 204 6 gusting 10 5.0
2014-Apr-17 23:52 186 5 gusting 12 5.0
2014-Apr-17 23:42 216 2 gusting 9 5.0
2014-Apr-17 23:32 193 2 gusting 11 5.0
2014-Apr-17 23:22 210 3 gusting 9 5.0
2014-Apr-17 23:12 204 4 gusting 8 5.0
2014-Apr-17 23:02 177 3 gusting 12 5.0
2014-Apr-17 22:52 195 1 gusting 7 5.0
2014-Apr-17 22:42 193 4 gusting 10 5.0
2014-Apr-17 22:32 197 4 gusting 11 5.0
2014-Apr-17 22:22 192 1 gusting 10 5.0
2014-Apr-17 22:12 162 3 gusting 11 5.0
2014-Apr-17 22:02 196 2 gusting 9 5.0